AFR722 FZAA-FCBB

Flight info

Callsign AFR722
Flight time 0h 9m
Altitude 5000
Route KE2 DCT KSA KSA3V
Aircraft A359/H-SDE2E3GHIJ3J4J5LM1ORWXY/LB1D1

Departure

Time 2026-04-28 01:20
Airport Ndjili International Airport (FZAA)

Arrival

Time 2026-04-28 01:29
Airport Maya-Maya International Airport (FCBB)
Time Latitude Longitude Altitude Speed Heading
2026-04-28 00:48 -4.38830 15.44488 1039 ft 0 kts 147°
2026-04-28 01:09 -4.38827 15.44487 1039 ft 3 kts 146°
2026-04-28 01:09 -4.38807 15.44470 1039 ft 4 kts 123°
2026-04-28 01:09 -4.38798 15.44446 1039 ft 5 kts 91°
2026-04-28 01:09 -4.38797 15.44442 1039 ft 4 kts 80°
2026-04-28 01:10 -4.38783 15.44464 1039 ft 5 kts 52°
2026-04-28 01:10 -4.38768 15.44485 1039 ft 3 kts 57°
2026-04-28 01:10 -4.38767 15.44486 1039 ft 4 kts 57°
2026-04-28 01:13 -4.38765 15.44490 1039 ft 3 kts 57°
2026-04-28 01:13 -4.38760 15.44498 1039 ft 7 kts 57°
2026-04-28 01:14 -4.38717 15.44539 1039 ft 7 kts 14°
2026-04-28 01:14 -4.38653 15.44508 1040 ft 15 kts 326°
2026-04-28 01:14 -4.38536 15.44494 1039 ft 21 kts 44°
2026-04-28 01:15 -4.38439 15.44644 1036 ft 31 kts 58°
2026-04-28 01:15 -4.38311 15.44846 1035 ft 36 kts 57°
2026-04-28 01:15 -4.38167 15.45065 1028 ft 38 kts 57°
2026-04-28 01:15 -4.38123 15.45132 1031 ft 38 kts 57°
2026-04-28 01:16 -4.38094 15.45178 1029 ft 38 kts 58°
2026-04-28 01:16 -4.37966 15.45379 1030 ft 34 kts 57°
2026-04-28 01:16 -4.37850 15.45558 1026 ft 10 kts 57°
2026-04-28 01:16 -4.37847 15.45564 1026 ft 1 kts 57°
2026-04-28 01:17 -4.37832 15.45596 1026 ft 10 kts 71°
2026-04-28 01:17 -4.37825 15.45686 1029 ft 16 kts 85°
2026-04-28 01:17 -4.37775 15.45743 1025 ft 8 kts
2026-04-28 01:17 -4.37759 15.45706 1028 ft 8 kts 256°
2026-04-28 01:18 -4.37794 15.45643 1026 ft 11 kts 235°
2026-04-28 01:18 -4.37798 15.45637 1028 ft 0 kts 236°
2026-04-28 01:19 -4.37799 15.45635 1028 ft 3 kts 236°
2026-04-28 01:19 -4.37846 15.45565 1026 ft 42 kts 237°
2026-04-28 01:19 -4.38304 15.44854 1008 ft 137 kts 237°
2026-04-28 01:19 -4.38903 15.43915 1357 ft 167 kts 237°
2026-04-28 01:20 -4.39527 15.42987 2278 ft 156 kts 235°
2026-04-28 01:20 -4.40132 15.42082 2827 ft 169 kts 237°
2026-04-28 01:20 -4.40814 15.41013 3115 ft 198 kts 237°
2026-04-28 01:20 -4.41614 15.39770 3442 ft 227 kts 237°
2026-04-28 01:21 -4.42527 15.38363 3868 ft 251 kts 237°
2026-04-28 01:21 -4.43506 15.36858 4475 ft 266 kts 236°
2026-04-28 01:21 -4.44548 15.35258 4852 ft 278 kts 236°
2026-04-28 01:21 -4.45597 15.33648 4947 ft 279 kts 236°
2026-04-28 01:22 -4.46663 15.32017 4950 ft 280 kts 236°
2026-04-28 01:22 -4.47731 15.30379 4951 ft 280 kts 236°
2026-04-28 01:22 -4.48775 15.28728 4949 ft 281 kts 239°
2026-04-28 01:22 -4.49412 15.26884 4954 ft 281 kts 263°
2026-04-28 01:23 -4.49191 15.24961 4955 ft 279 kts 290°
2026-04-28 01:23 -4.48152 15.23342 4987 ft 278 kts 316°
2026-04-28 01:23 -4.46723 15.22074 4984 ft 278 kts 321°
2026-04-28 01:23 -4.45601 15.21155 4985 ft 278 kts 322°
2026-04-28 01:24 -4.44103 15.19922 4989 ft 278 kts 321°
2026-04-28 01:24 -4.42623 15.18678 4919 ft 274 kts 320°
2026-04-28 01:24 -4.41689 15.17858 4812 ft 266 kts 319°
2026-04-28 01:24 -4.40308 15.16634 4348 ft 268 kts 319°
2026-04-28 01:25 -4.38897 15.15386 3829 ft 271 kts 319°
2026-04-28 01:25 -4.37350 15.14315 3346 ft 270 kts 338°
2026-04-28 01:25 -4.35532 15.14037 3049 ft 265 kts
2026-04-28 01:25 -4.33440 15.15012 2973 ft 237 kts 38°
2026-04-28 01:26 -4.32690 15.15759 2973 ft 215 kts 54°
2026-04-28 01:26 -4.31903 15.16930 2873 ft 193 kts 57°
2026-04-28 01:26 -4.31131 15.17967 2662 ft 178 kts 51°
2026-04-28 01:26 -4.30356 15.18863 2446 ft 166 kts 50°
2026-04-28 01:27 -4.29615 15.19712 2217 ft 157 kts 50°
2026-04-28 01:27 -4.28927 15.20517 2014 ft 148 kts 51°
2026-04-28 01:27 -4.28288 15.21287 1813 ft 140 kts 50°
2026-04-28 01:27 -4.27663 15.22036 1583 ft 139 kts 50°
2026-04-28 01:28 -4.27039 15.22784 1383 ft 140 kts 50°
2026-04-28 01:28 -4.26413 15.23532 1222 ft 141 kts 50°
2026-04-28 01:28 -4.25777 15.24286 1070 ft 142 kts 50°
2026-04-28 01:28 -4.25194 15.24977 1040 ft 113 kts 50°
2026-04-28 01:29 -4.24790 15.25460 1042 ft 63 kts 50°
2026-04-28 01:29 -4.24606 15.25680 1041 ft 31 kts 50°
2026-04-28 01:29 -4.24538 15.25774 1040 ft 0 kts 85°
2026-04-28 01:29 -4.24543 15.25788 1040 ft 4 kts 114°
2026-04-28 01:30 -4.24576 15.25830 1042 ft 11 kts 136°
2026-04-28 01:30 -4.24644 15.25889 1044 ft 16 kts 139°
2026-04-28 01:30 -4.24742 15.25974 1044 ft 21 kts 140°
2026-04-28 01:30 -4.24842 15.25997 1045 ft 13 kts 210°
2026-04-28 01:31 -4.24918 15.25917 1045 ft 19 kts 230°
2026-04-28 01:31 -4.25013 15.25803 1045 ft 24 kts 230°
2026-04-28 01:31 -4.25132 15.25661 1045 ft 29 kts 230°
2026-04-28 01:31 -4.25268 15.25499 1045 ft 31 kts 230°
2026-04-28 01:32 -4.25410 15.25328 1045 ft 33 kts 230°
2026-04-28 01:32 -4.25503 15.25218 1045 ft 0 kts 230°
2026-04-28 01:32 -4.25508 15.25212 1045 ft 3 kts 230°
2026-04-28 01:32 -4.25533 15.25183 1045 ft 8 kts 230°
2026-04-28 01:33 -4.25579 15.25131 1045 ft 11 kts 220°
2026-04-28 01:33 -4.25651 15.25140 1045 ft 12 kts 146°
2026-04-28 01:33 -4.25662 15.25149 1045 ft 0 kts 141°
2026-04-28 01:33 -4.25671 15.25156 1045 ft 5 kts 140°
2026-04-28 01:34 -4.25679 15.25163 1045 ft 0 kts 139°